Lid_Strength_Index
11 9 9 9 9 10 9 10 10 10 9 9 9 10 10 10 11 11 11 12 12 12 12 12 11 11 11 13 13 12 14 16 18 18 16 15 14 15 14 14 13 13 12
12 10 9 9 9 10 10 10 10 10 10 9 9 10 10 10 11 11 11 11 12 12 11 12 13 13 13 13 12 13 15 15 16 18 17 17 16 15 15 15 13 12 13
15 14 12 12 11 10 10 9 10 10 10 10 10 10 10 10 11 11 11 12 12 12 13 13 13 12 12 13 14 14 15 14 15 17 18 18 18 17 17 15 15 14 14
16 16 16 14 13 12 10 10 9 10 10 10 10 10 9 10 11 11 11 12 12 12 12 12 13 12 12 13 13 13 14 15 16 18 19 20 19 17 18 18 16 16 17
19 18 18 16 15 14 13 12 10 10 10 10 10 10 10 10 11 11 11 11 12 13 13 13 13 12 12 12 12 14 15 16 18 19 20 21 21 21 19 16 17 17 18
20 20 19 17 16 16 14 14 12 11 11 11 11 11 11 10 10 10 11 11 12 13 13 14 13 14 13 11 11 12 13 15 17 18 21 19 20 18 16 16 17 19 22
21 21 20 19 17 17 15 14 14 14 13 13 14 13 12 11 9 10 10 12 13 13 13 13 14 13 14 13 12 12 12 12 14 16 19 19 19 17 17 17 18 22 22
22 21 21 20 19 17 16 15 14 14 14 14 14 15 17 15 10 10 11 14 13 14 13 13 13 15 14 14 14 16 16 16 15 15 16 16 16 15 16 18 24 26 25
23 22 22 21 20 19 19 17 15 14 14 14 14 14 14 14 12 11 12 15 15 15 15 14 14 15 13 12 15 16 18 18 14 13 13 13 13 13 18 25 27 27 29
24 23 22 21 20 20 20 18 17 15 14 14 14 14 14 14 14 11 12 15 17 17 19 17 15 15 13 12 15 16 17 17 17 17 14 13 14 16 16 22 22 27 28
23 22 22 21 21 20 20 19 18 17 15 14 14 14 14 14 14 13 11 16 14 17 16 16 15 12 12 11 13 15 15 16 15 16 17 18 18 18 19 20 20 25 28
24 24 23 22 21 20 20 20 19 19 18 16 16 15 14 14 14 13 12 11 13 15 15 14 14 12 11 11 12 14 13 14 15 16 17 18 17 18 18 20 25 27 27
26 26 25 23 22 22 21 21 20 19 20 19 18 18 17 15 14 13 12 12 11 13 15 13 12 12 11 11 11 13 14 16 16 17 17 18 19 21 24 26 29 30 29
26 26 25 25 25 23 22 21 21 20 20 19 19 19 18 16 15 15 14 15 14 13 12 13 12 12 12 12 13 13 14 15 16 16 18 22 22 23 24 24 25 27 26
25 26 25 25 25 25 23 23 21 19 18 19 18 18 18 18 16 13 13 13 14 14 13 13 13 14 14 14 14 14 14 15 17 18 20 21 20 21 22 24 25 27 26
25 25 25 25 26 25 25 24 21 19 18 17 17 17 16 16 15 14 12 11 11 11 13 13 14 14 15 15 15 15 15 16 16 17 18 19 19 20 21 22 25 27 27
26 26 26 27 27 26 26 26 26 23 20 19 18 18 17 16 16 14 13 12 11 11 13 13 14 15 15 15 15 15 16 16 17 17 18 18 19 20 21 21 23 25 27
28 27 27 27 27 27 26 26 26 27 27 26 22 20 19 17 16 15 15 14 13 12 12 13 13 13 14 14 15 15 15 16 18 18 17 17 18 19 21 21 21 25 27
27 28 28 28 28 28 28 28 27 27 27 27 25 22 20 18 17 17 16 18 16 13 12 13 12 13 14 14 14 15 15 16 17 17 17 17 18 19 20 20 21 23 26
28 28 28 28 28 29 29 29 28 28 28 28 27 26 26 26 23 22 18 18 18 17 15 12 12 12 13 13 13 14 15 16 17 17 17 17 17 18 19 20 21 23 27
28 28 28 28 28 29 29 29 29 29 29 29 28 25 20 22 23 22 21 19 18 18 17 16 10 11 11 12 12 13 14 16 16 16 16 17 17 18 18 19 21 23 24
29 29 29 29 29 28 28 28 28 28 28 28 27 26 21 24 25 24 22 21 20 18 16 15 14 10 10 11 12 13 14 14 16 16 16 16 17 17 18 20 21 22 23
28 28 28 28 28 28 28 28 27 27 27 28 27 27 27 27 26 25 24 22 20 19 17 16 15 14 10 10 10 12 13 13 14 14 15 16 16 18 18 20 20 22 22
29 29 29 30 29 29 29 29 28 28 27 27 26 26 27 26 26 25 24 22 21 20 18 17 15 15 15 10 10 10 11 11 13 14 15 15 16 17 18 19 20 21 22
30 30 30 31 31 31 31 30 30 29 28 28 28 27 26 25 26 25 25 24 23 22 20 19 17 17 17 14 10 9 10 11 12 13 14 15 15 17 17 18 19 21 21
28 28 29 29 29 29 30 30 30 30 29 29 28 27 27 27 26 24 24 24 23 22 20 19 18 18 18 16 14 9 9 10 11 12 12 13 15 16 17 18 19 20 21